| time (UTC) | temp C | wind direction | speed KPH | gust KPH | rain 1hr cm | rain 24hr cm | rain mn cm | humidity % | barometer mb |
| 20260504160126 | 24 | 246 | 12.9 | 19.3 | 0.00 | 0.00 | 0.00 | ||
| 20260504151127 | 22 | 206 | 11.3 | 16.1 | 0.00 | 0.00 | 0.00 | ||
| 20260504150626 | 22 | 220 | 9.7 | 14.5 | 0.00 | 0.00 | 0.00 | ||
| 20260504150126 | 21 | 241 | 9.7 | 19.3 | 0.00 | 0.00 | 0.00 | ||
| 20260504141126 | 20 | 199 | 11.3 | 14.5 | 0.00 | 0.00 | 0.00 | ||
| 20260504140626 | 20 | 265 | 9.7 | 12.9 | 0.00 | 0.00 | 0.00 | ||
| 20260504140126 | 20 | 259 | 8.0 | 12.9 | 0.00 | 0.00 | 0.00 | ||
| 20260504130626 | 18 | 218 | 9.7 | 17.7 | 0.00 | 0.00 | 0.00 | ||
| 20260504130126 | 18 | 220 | 4.8 | 16.1 | 0.00 | 0.00 | 0.00 | ||
| 20260504120127 | 17 | 210 | 3.2 | 12.9 | 0.00 | 0.00 | 0.00 | ||
| 20260504110627 | 16 | 232 | 4.8 | 9.7 | 0.00 | 0.00 | 0.00 | ||
| 20260504100128 | 17 | 227 | 6.4 | 3.2 | 0.00 | 0.00 | 0.00 | ||
| 20260504090127 | 17 | 149 | 4.8 | 11.3 | 0.00 | 0.00 | 0.00 | ||
| 20260504081627 | 17 | 222 | 4.8 | 9.7 | 0.00 | 0.00 | 0.00 | ||
| 20260504081127 | 17 | 214 | 4.8 | 9.7 | 0.00 | 0.00 | 0.00 | ||
| 20260504080128 | 17 | 307 | 3.2 | 4.8 | 0.00 | 0.00 | 0.00 | ||
| 20260504070128 | 18 | 260 | 3.2 | 6.4 | 0.00 | 0.00 | 0.00 | ||
| 20260504060128 | 18 | 218 | 3.2 | 6.4 | 0.00 | 0.00 | 0.00 | ||
| 20260504050629 | 19 | 114 | 1.6 | 1.6 | 0.00 | 0.00 | 0.00 | ||
| 20260504050128 | 20 | 206 | 3.2 | 9.7 | 0.00 | 0.00 | 0.00 | ||
| 20260504045628 | 20 | 176 | 1.6 | 3.2 | 0.00 | 0.00 | 0.00 | ||
| 20260504045129 | 20 | 190 | 6.4 | 3.2 | 0.00 | 0.00 | 0.00 | ||
| 20260504044628 | 20 | 258 | 6.4 | 4.8 | 0.00 | 0.00 | 0.00 | ||
| 20260504044128 | 20 | 270 | 3.2 | 4.8 | 0.00 | 0.00 | 0.00 | ||
| 20260504043629 | 20 | 228 | 4.8 | 4.8 | 0.00 | 0.00 | 0.00 | ||
| 20260504043128 | 20 | 120 | 4.8 | 1.6 | 0.00 | 0.00 | 0.00 | ||
| 20260504042628 | 20 | 262 | 3.2 | 14.5 | 0.00 | 0.00 | 0.00 | ||
| 20260504042128 | 20 | 222 | 3.2 | 12.9 | 0.00 | 0.00 | 0.00 | ||
| 20260504041628 | 20 | 210 | 4.8 | 6.4 | 0.00 | 0.00 | 0.00 | ||
| 20260504041128 | 20 | 238 | 9.7 | 16.1 | 0.00 | 0.00 | 0.00 | ||
| 20260504040628 | 20 | 237 | 4.8 | 11.3 | 0.00 | 0.00 | 0.00 | ||
| 20260504040129 | 20 | 221 | 4.8 | 6.4 | 0.00 | 0.00 | 0.00 | ||
| 20260504035628 | 20 | 180 | 3.2 | 6.4 | 0.00 | 0.00 | 0.00 | ||
| 20260504035128 | 21 | 197 | 4.8 | 6.4 | 0.00 | 0.00 | 0.00 | ||
| 20260504034629 | 21 | 183 | 4.8 | 4.8 | 0.00 | 0.00 | 0.00 | ||
| 20260504034128 | 21 | 208 | 3.2 | 8.0 | 0.00 | 0.00 | 0.00 | ||
| 20260504033628 | 20 | 220 | 6.4 | 11.3 | 0.00 | 0.00 | 0.00 | ||
| 20260504033128 | 21 | 220 | 6.4 | 6.4 | 0.00 | 0.00 | 0.00 | ||
| 20260504032129 | 21 | 217 | 8.0 | 4.8 | 0.00 | 0.00 | 0.00 | ||
| 20260504031628 | 21 | 217 | 1.6 | 11.3 | 0.00 | 0.00 | 0.00 | ||
| 20260504031129 | 21 | 186 | 1.6 | 1.6 | 0.00 | 0.00 | 0.00 | ||
| 20260504030629 | 21 | 155 | 4.8 | 4.8 | 0.00 | 0.00 | 0.00 | ||
| 20260504030128 | 21 | 246 | 1.6 | 6.4 | 0.00 | 0.00 | 0.00 | ||
| 20260504025629 | 21 | 256 | 1.6 | 3.2 | 0.00 | 0.00 | 0.00 | ||
| 20260504025129 | 21 | 210 | 1.6 | 1.6 | 0.00 | 0.00 | 0.00 | ||
| 20260504024128 | 21 | 183 | 3.2 | 3.2 | 0.00 | 0.00 | 0.00 | ||
| 20260504023629 | 21 | 184 | 3.2 | 4.8 | 0.00 | 0.00 | 0.00 | ||
| 20260504023129 | 21 | 79 | 3.2 | 4.8 | 0.00 | 0.00 | 0.00 | ||
| 20260504022629 | 21 | 191 | 4.8 | 8.0 | 0.00 | 0.00 | 0.00 | ||
| 20260504022128 | 22 | 144 | 4.8 | 4.8 | 0.00 | 0.00 | 0.00 | ||
| 20260504021128 | 22 | 245 | 4.8 | 12.9 | 0.00 | 0.00 | 0.00 | ||
| 20260504020129 | 22 | 244 | 9.7 | 14.5 | 0.00 | 0.00 | 0.00 | ||
| 20260504015629 | 22 | 214 | 3.2 | 11.3 | 0.00 | 0.00 | 0.00 | ||
| 20260504014629 | 22 | 220 | 3.2 | 11.3 | 0.00 | 0.00 | 0.00 | ||
| 20260504014129 | 22 | 124 | 4.8 | 1.6 | 0.00 | 0.00 | 0.00 | ||
| 20260504013629 | 22 | 93 | 6.4 | 4.8 | 0.00 | 0.00 | 0.00 | ||
| 20260504012629 | 23 | 214 | 6.4 | 1.6 | 0.00 | 0.00 | 0.00 | ||
| 20260504012129 | 23 | 75 | 3.2 | 6.4 | 0.00 | 0.00 | 0.00 | ||
| 20260504011629 | 23 | 227 | 3.2 | 8.0 | 0.00 | 0.00 | 0.00 | ||
| 20260504010915 | 23 | 148 | 9.7 | 8.0 | 0.00 | 0.00 | 0.00 | ||
| 20260504010629 | 23 | 173 | 3.2 | 8.0 | 0.00 | 0.00 | 0.00 | ||
| 20260504010129 | 23 | 148 | 9.7 | 8.0 | 0.00 | 0.00 | 0.00 | ||
| 20260504005629 | 23 | 90 | 3.2 | 9.7 | 0.00 | 0.00 | 0.00 | ||
| 20260504005129 | 23 | 225 | 3.2 | 3.2 | 0.00 | 0.00 | 0.00 | ||
| 20260504004629 | 24 | 201 | 0.0 | 1.6 | 0.00 | 0.00 | 0.00 | ||
| 20260504004129 | 24 | 128 | 1.6 | 4.8 | 0.00 | 0.00 | 0.00 | ||
| 20260504003129 | 25 | 231 | 1.6 | 6.4 | 0.00 | 0.00 | 0.00 | ||
| 20260504002129 | 25 | 248 | 4.8 | 3.2 | 0.00 | 0.00 | 0.00 | ||
| 20260504001630 | 25 | 252 | 6.4 | 4.8 | 0.00 | 0.00 | 0.00 | ||
| 20260504001129 | 25 | 228 | 8.0 | 9.7 | 0.00 | 0.00 | 0.00 | ||
| 20260504000630 | 26 | 153 | 4.8 | 11.3 | 0.00 | 0.00 | 0.00 | ||
| 20260503235630 | 26 | 208 | 1.6 | 9.7 | 0.00 | 0.00 | 0.00 | ||
| 20260503235130 | 26 | 28 | 9.7 | 8.0 | 0.00 | 0.00 | 0.00 | ||
| 20260503234129 | 26 | 183 | 9.7 | 17.7 | 0.00 | 0.00 | 0.00 | ||
| 20260503233630 | 27 | 201 | 4.8 | 4.8 | 0.00 | 0.00 | 0.00 | ||
| 20260503233129 | 27 | 228 | 8.0 | 16.1 | 0.00 | 0.00 | 0.00 | ||
| 20260503232630 | 26 | 253 | 8.0 | 12.9 | 0.00 | 0.00 | 0.00 | ||
| 20260503232129 | 27 | 208 | 6.4 | 9.7 | 0.00 | 0.00 | 0.00 | ||
| 20260503231630 | 27 | 193 | 4.8 | 9.7 | 0.00 | 0.00 | 0.00 | ||
| 20260503231130 | 27 | 196 | 1.6 | 4.8 | 0.00 | 0.00 | 0.00 | ||
| 20260503230630 | 27 | 310 | 6.4 | 6.4 | 0.00 | 0.00 | 0.00 | ||
| 20260503230129 | 27 | 194 | 9.7 | 9.7 | 0.00 | 0.00 | 0.00 | ||
| 20260503224130 | 27 | 206 | 3.2 | 12.9 | 0.00 | 0.00 | 0.00 | ||
| 20260503222630 | 27 | 246 | 8.0 | 9.7 | 0.00 | 0.00 | 0.00 | ||
| 20260503222130 | 27 | 213 | 8.0 | 17.7 | 0.00 | 0.00 | 0.00 | ||
| 20260503221630 | 28 | 200 | 9.7 | 12.9 | 0.00 | 0.00 | 0.00 | ||
| 20260503221129 | 28 | 213 | 6.4 | 16.1 | 0.00 | 0.00 | 0.00 | ||
| 20260503220630 | 28 | 259 | 9.7 | 12.9 | 0.00 | 0.00 | 0.00 | ||
| 20260503215630 | 28 | 232 | 6.4 | 6.4 | 0.00 | 0.00 | 0.00 | ||
| 20260503215130 | 28 | 213 | 6.4 | 11.3 | 0.00 | 0.00 | 0.00 | ||
| 20260503214630 | 28 | 210 | 6.4 | 17.7 | 0.00 | 0.00 | 0.00 | ||
| 20260503214130 | 28 | 238 | 6.4 | 9.7 | 0.00 | 0.00 | 0.00 | ||
| 20260503213629 | 28 | 158 | 11.3 | 11.3 | 0.00 | 0.00 | 0.00 | ||
| 20260503213129 | 28 | 106 | 4.8 | 0.0 | 0.00 | 0.00 | 0.00 | ||
| 20260503212630 | 28 | 241 | 9.7 | 11.3 | 0.00 | 0.00 | 0.00 | ||
| 20260503212130 | 28 | 269 | 8.0 | 9.7 | 0.00 | 0.00 | 0.00 | ||
| 20260503211630 | 30 | 183 | 6.4 | 14.5 | 0.00 | 0.00 | 0.00 | ||
| 20260503211130 | 28 | 245 | 4.8 | 11.3 | 0.00 | 0.00 | 0.00 | ||
| 20260503210130 | 28 | 255 | 6.4 | 11.3 | 0.00 | 0.00 | 0.00 | ||
| 20260503205630 | 27 | 237 | 4.8 | 9.7 | 0.00 | 0.00 | 0.00 | ||
| 20260503204630 | 29 | 225 | 8.0 | 9.7 | 0.00 | 0.00 | 0.00 | ||
| 20260503203630 | 29 | 265 | 8.0 | 14.5 | 0.00 | 0.00 | 0.00 | ||
| 20260503202630 | 30 | 169 | 6.4 | 8.0 | 0.00 | 0.00 | 0.00 | ||
| 20260503202130 | 30 | 153 | 4.8 | 8.0 | 0.00 | 0.00 | 0.00 | ||
| 20260503201630 | 29 | 239 | 11.3 | 16.1 | 0.00 | 0.00 | 0.00 | ||
| 20260503201130 | 30 | 128 | 4.8 | 4.8 | 0.00 | 0.00 | 0.00 | ||
| 20260503200630 | 30 | 194 | 4.8 | 8.0 | 0.00 | 0.00 | 0.00 | ||
| 20260503200130 | 29 | 199 | 6.4 | 8.0 | 0.00 | 0.00 | 0.00 | ||
| 20260503195630 | 28 | 231 | 6.4 | 16.1 | 0.00 | 0.00 | 0.00 | ||
| 20260503195130 | 29 | 155 | 3.2 | 4.8 | 0.00 | 0.00 | 0.00 | ||
| 20260503194630 | 30 | 183 | 6.4 | 14.5 | 0.00 | 0.00 | 0.00 | ||
| 20260503194130 | 30 | 199 | 6.4 | 11.3 | 0.00 | 0.00 | 0.00 | ||
| 20260503193630 | 30 | 179 | 6.4 | 9.7 | 0.00 | 0.00 | 0.00 | ||
| 20260503193130 | 29 | 248 | 11.3 | 6.4 | 0.00 | 0.00 | 0.00 | ||
| 20260503192630 | 28 | 262 | 12.9 | 9.7 | 0.00 | 0.00 | 0.00 | ||
| 20260503192130 | 30 | 214 | 8.0 | 8.0 | 0.00 | 0.00 | 0.00 | ||
| 20260503191630 | 31 | 222 | 6.4 | 12.9 | 0.00 | 0.00 | 0.00 | ||
| 20260503191130 | 30 | 225 | 9.7 | 17.7 | 0.00 | 0.00 | 0.00 | ||
| 20260503190130 | 29 | 252 | 4.8 | 9.7 | 0.00 | 0.00 | 0.00 | ||
| 20260503185630 | 30 | 231 | 9.7 | 14.5 | 0.00 | 0.00 | 0.00 | ||
| 20260503185130 | 30 | 176 | 3.2 | 11.3 | 0.00 | 0.00 | 0.00 | ||
| 20260503184630 | 30 | 263 | 8.0 | 11.3 | 0.00 | 0.00 | 0.00 | ||
| 20260503184130 | 30 | 215 | 3.2 | 8.0 | 0.00 | 0.00 | 0.00 | ||
| 20260503183630 | 30 | 228 | 4.8 | 14.5 | 0.00 | 0.00 | 0.00 | ||
| 20260503183131 | 31 | 206 | 6.4 | 14.5 | 0.00 | 0.00 | 0.00 | ||
| 20260503182631 | 31 | 222 | 6.4 | 9.7 | 0.00 | 0.00 | 0.00 | ||
| 20260503182130 | 30 | 251 | 9.7 | 6.4 | 0.00 | 0.00 | 0.00 | ||
| 20260503181630 | 30 | 300 | 4.8 | 9.7 | 0.00 | 0.00 | 0.00 | ||
| 20260503181130 | 29 | 225 | 4.8 | 14.5 | 0.00 | 0.00 | 0.00 | ||
| 20260503180630 | 28 | 252 | 9.7 | 9.7 | 0.00 | 0.00 | 0.00 | ||
| 20260503175130 | 28 | 46 | 6.4 | 8.0 | 0.00 | 0.00 | 0.00 | ||
| 20260503174630 | 28 | 215 | 9.7 | 11.3 | 0.00 | 0.00 | 0.00 | ||
| 20260503173630 | 28 | 227 | 11.3 | 12.9 | 0.00 | 0.00 | 0.00 | ||
| 20260503173130 | 28 | 245 | 4.8 | 6.4 | 0.00 | 0.00 | 0.00 | ||
| 20260503172630 | 27 | 270 | 6.4 | 4.8 | 0.00 | 0.00 | 0.00 | ||
| 20260503172131 | 27 | 193 | 8.0 | 11.3 | 0.00 | 0.00 | 0.00 | ||
| 20260503171130 | 27 | 251 | 11.3 | 14.5 | 0.00 | 0.00 | 0.00 | ||
| 20260503170631 | 27 | 269 | 4.8 | 9.7 | 0.00 | 0.00 | 0.00 | ||
| 20260503170130 | 27 | 251 | 4.8 | 14.5 | 0.00 | 0.00 | 0.00 |